TimeEDT,TemperatureF,Dew PointF,Humidity,Sea Level PressureIn,VisibilityMPH,Wind Direction,Wind SpeedMPH,Gust SpeedMPH,PrecipitationIn,Events,Conditions,WindDirDegrees,DateUTC
12:51 AM,34.0,32.0,92,30.01,10.0,SSW,6.9,-,N/A,,Overcast,210,2013-10-28 04:51:00
1:51 AM,35.1,32.0,89,30.00,10.0,SW,10.4,-,N/A,,Overcast,220,2013-10-28 05:51:00
2:04 AM,35.6,33.8,93,29.96,10.0,SW,8.1,-,N/A,,Overcast,220,2013-10-28 06:04:00
2:33 AM,35.6,33.8,93,29.96,10.0,SSW,9.2,-,N/A,,Overcast,210,2013-10-28 06:33:00
2:51 AM,35.1,33.1,92,30.00,10.0,SSW,6.9,-,N/A,,Overcast,200,2013-10-28 06:51:00
3:51 AM,35.1,33.1,92,29.99,10.0,SW,6.9,-,N/A,,Overcast,220,2013-10-28 07:51:00
4:51 AM,36.0,33.1,89,29.99,10.0,SW,9.2,-,N/A,,Overcast,220,2013-10-28 08:51:00
5:51 AM,35.1,34.0,96,29.99,10.0,SSW,8.1,-,0.00,,Overcast,210,2013-10-28 09:51:00
6:51 AM,36.0,33.1,89,29.98,10.0,SW,10.4,-,0.00,,Overcast,220,2013-10-28 10:51:00
6:59 AM,35.6,33.8,93,29.93,10.0,SW,12.7,19.6,N/A,,Overcast,230,2013-10-28 10:59:00
7:40 AM,37.4,32.0,81,29.93,10.0,SW,12.7,21.9,N/A,,Overcast,230,2013-10-28 11:40:00
7:51 AM,37.0,33.1,86,29.99,10.0,SW,10.4,-,N/A,,Overcast,220,2013-10-28 11:51:00
8:51 AM,37.9,35.1,89,30.01,7.0,SW,9.2,-,0.00,,Overcast,230,2013-10-28 12:51:00
9:51 AM,39.0,36.0,89,30.06,3.0,West,12.7,26.5,0.01,Rain,Light Rain,280,2013-10-28 13:51:00
9:59 AM,37.4,35.6,93,30.02,2.5,WNW,11.5,26.5,0.01,Rain,Light Rain,300,2013-10-28 13:59:00
10:07 AM,37.4,35.6,93,30.02,7.0,Variable,6.9,19.6,0.01,Rain,Light Rain,0,2013-10-28 14:07:00
10:25 AM,37.4,33.8,87,30.04,10.0,Variable,6.9,18.4,0.01,,Overcast,0,2013-10-28 14:25:00
10:41 AM,37.4,33.8,87,30.05,10.0,WNW,11.5,18.4,0.01,,Overcast,300,2013-10-28 14:41:00
10:51 AM,36.0,30.9,82,30.11,10.0,Variable,4.6,19.6,0.01,,Overcast,0,2013-10-28 14:51:00
11:16 AM,37.4,32.0,81,30.08,10.0,West,9.2,20.7,N/A,,Overcast,280,2013-10-28 15:16:00
11:43 AM,37.4,32.0,81,30.10,9.0,NNW,9.2,18.4,0.00,Snow,Light Snow,330,2013-10-28 15:43:00
11:51 AM,37.0,32.0,82,30.15,10.0,Variable,6.9,17.3,0.00,,Overcast,0,2013-10-28 15:51:00
11:58 AM,37.4,30.2,75,30.11,10.0,Variable,6.9,-,N/A,,Overcast,0,2013-10-28 15:58:00
12:51 PM,36.0,27.0,70,30.19,10.0,NW,9.2,18.4,0.00,,Mostly Cloudy,310,2013-10-28 16:51:00
1:11 PM,35.6,28.4,75,30.15,9.0,Variable,6.9,-,0.00,Snow,Light Snow,0,2013-10-28 17:11:00
1:49 PM,35.6,24.8,65,30.17,10.0,Variable,5.8,-,0.00,,Mostly Cloudy,0,2013-10-28 17:49:00
1:51 PM,36.0,24.1,62,30.22,10.0,West,8.1,-,0.00,,Scattered Clouds,270,2013-10-28 17:51:00
2:51 PM,36.0,23.0,59,30.24,10.0,Calm,Calm,-,N/A,,Mostly Cloudy,0,2013-10-28 18:51:00
3:51 PM,37.0,21.0,52,30.26,10.0,Variable,6.9,-,N/A,,Scattered Clouds,0,2013-10-28 19:51:00
4:51 PM,35.1,17.1,48,30.28,10.0,Variable,5.8,-,N/A,,Partly Cloudy,0,2013-10-28 20:51:00
5:51 PM,32.0,18.0,56,30.31,10.0,Calm,Calm,-,N/A,,Clear,0,2013-10-28 21:51:00
6:51 PM,27.0,19.9,75,30.33,10.0,Calm,Calm,-,N/A,,Clear,0,2013-10-28 22:51:00
7:51 PM,24.1,19.0,81,30.35,10.0,Calm,Calm,-,N/A,,Clear,0,2013-10-28 23:51:00
8:51 PM,21.9,19.0,89,30.37,10.0,Calm,Calm,-,N/A,,Clear,0,2013-10-29 00:51:00
9:51 PM,19.0,17.1,92,30.39,10.0,Calm,Calm,-,N/A,,Clear,0,2013-10-29 01:51:00
10:51 PM,19.0,18.0,96,30.39,10.0,Calm,Calm,-,N/A,,Clear,0,2013-10-29 02:51:00
11:51 PM,18.0,16.0,92,30.39,10.0,Calm,Calm,-,N/A,,Clear,0,2013-10-29 03:51:00